Wind_Speed
30 27 21 24 26 29 30 30 31 38 38 38 34 34 31 29 28 30 32 28 27 27 27 25 21 22 25 28 31 31 31 30 29 25 30 29 26 29 29 27 26 23 21 19
21 28 25 30 30 29 32 33 33 36 41 33 32 27 25 26 30 31 29 23 26 26 25 24 26 29 28 31 34 35 36 36 37 35 35 35 36 34 34 31 31 30 29 21
11 13 15 23 29 30 30 28 27 30 27 24 25 24 24 31 34 25 25 21 20 21 25 26 26 26 25 25 24 24 26 25 26 28 30 32 34 38 40 35 33 33 31 22
8 9 12 13 14 13 16 20 20 25 26 26 27 31 32 29 28 25 25 21 19 21 22 21 21 22 23 24 23 22 21 21 20 20 20 20 28 33 35 36 33 31 30 25
8 15 21 25 25 24 20 16 21 22 24 26 29 34 25 24 30 28 25 18 17 17 19 19 22 21 21 20 23 27 24 20 18 17 19 16 18 24 27 31 31 31 26 30
12 10 11 4 12 11 12 23 20 21 22 25 29 32 33 34 26 27 24 20 18 18 19 21 21 21 20 20 22 21 20 19 16 14 15 12 17 19 22 27 29 35 21 14
30 21 18 20 19 18 14 13 19 21 22 23 25 25 26 30 30 28 29 26 18 18 18 21 23 22 21 20 20 17 17 20 15 11 10 7 10 14 19 17 16 19 17 15
25 25 22 21 17 17 16 21 25 23 20 27 28 28 30 30 30 23 11 15 11 17 20 23 24 23 21 22 25 18 18 20 11 11 13 12 12 15 13 16 15 16 18 20
16 15 21 22 22 22 22 25 29 30 30 36 36 31 31 35 28 26 12 11 15 17 21 23 24 22 18 20 23 16 19 16 16 13 14 12 13 14 15 16 16 19 20 21
20 32 28 28 24 27 28 27 29 27 27 29 32 30 33 35 33 26 12 11 11 13 19 21 19 18 15 17 20 14 14 14 11 12 13 12 13 13 15 15 16 20 20 22
28 28 27 27 23 21 22 25 27 27 25 26 27 32 35 33 27 23 8 11 12 13 17 17 16 17 13 15 15 14 10 6 10 12 11 13 14 15 16 16 17 17 18 20
27 20 20 22 21 25 27 27 27 25 25 25 25 28 30 28 21 20 13 15 14 12 16 17 16 17 16 15 17 13 13 13 8 7 9 10 11 13 15 16 16 17 17 16
21 22 25 27 25 21 21 24 25 28 29 26 26 28 26 24 19 19 16 14 11 15 16 18 18 18 19 16 16 15 13 12 12 8 13 14 13 13 13 15 14 16 15 16
20 21 26 25 28 26 26 27 30 31 28 28 28 25 23 20 17 17 19 17 16 17 17 18 18 18 18 20 19 18 18 16 15 16 16 18 17 16 16 15 15 16 17 18
21 22 27 26 22 23 23 25 26 26 27 28 23 21 18 19 21 19 18 20 20 20 20 21 22 20 18 19 21 22 20 19 18 17 17 19 19 19 21 20 19 19 20 21
20 17 12 14 15 12 12 14 16 17 17 18 19 20 20 21 21 26 24 23 23 23 23 24 24 22 22 21 21 23 22 20 17 16 16 17 18 19 22 23 25 27 26 24
7 5 7 10 11 11 12 13 14 14 15 16 18 20 21 22 23 23 24 24 25 24 23 24 24 23 25 21 23 23 20 18 17 16 16 16 18 19 21 23 24 27 29 28
8 8 11 12 13 13 13 14 14 14 14 15 15 16 17 19 22 24 25 24 24 25 26 26 24 24 23 23 25 19 16 15 16 15 15 16 17 18 21 22 23 25 27 27
8 13 14 14 14 15 14 14 15 15 15 15 14 15 14 15 17 17 17 21 23 22 22 23 20 19 17 15 13 13 12 13 13 13 12 11 12 14 15 15 17 18 19 19
9 11 16 17 16 17 17 17 16 16 15 14 14 14 14 14 13 13 12 10 10 13 13 14 13 12 11 10 9 9 10 11 10 10 9 8 7 6 6 6 6 7 8 10
12 18 19 20 21 20 20 21 20 21 20 17 15 14 14 14 12 9 10 11 10 10 11 11 10 9 8 7 8 9 9 9 8 7 6 5 5 5 5 6 6 7 8 9
19 21 22 23 23 24 25 24 23 22 22 21 18 16 14 14 12 11 9 8 8 9 9 9 9 9 9 9 9 9 9 8 8 7 7 6 7 7 7 7 8 8 9 10
22 24 24 24 25 25 26 27 26 26 25 24 21 18 17 16 15 13 12 11 11 11 11 11 11 11 11 11 10 10 9 9 9 8 8 8 9 9 10 10 11 11 12 13
26 27 27 28 28 28 28 28 27 26 25 24 22 20 19 18 17 16 15 15 14 14 14 14 14 14 14 13 12 11 11 10 10 10 9 9 8 8 9 10 11 12 13 15
32 32 32 32 32 32 32 31 30 28 26 24 22 21 20 21 21 20 19 18 17 16 16 17 17 18 17 16 13 13 13 12 11 10 10 9 9 10 11 13 14 16 18 19
35 35 35 33 31 30 30 30 28 27 26 24 22 20 20 21 21 21 20 20 19 19 19 20 20 21 20 17 16 16 15 14 13 12 11 11 12 14 16 18 20 21 23 24
35 35 33 31 29 28 26 25 24 22 21 20 20 19 20 20 20 20 20 19 19 18 19 20 22 23 22 19 19 18 18 17 15 16 18 20 21 20 20 21 23 24 25 26
Wind_Direction
257 257 257 257 250 246 254 260 251 266 264 281 285 290 288 288 292 298 293 292 292 298 290 286 287 292 287 284 286 288 291 292 290 279 269 267 265 253 258 251 251 249 254 263
254 261 261 259 255 257 253 254 256 260 269 280 287 284 285 290 296 297 296 289 290 294 285 274 284 290 287 286 286 283 283 281 280 276 267 260 250 247 250 253 252 265 255 255
252 254 269 268 251 248 249 248 246 256 272 282 278 280 290 298 301 297 295 286 289 282 282 283 284 286 284 287 282 287 283 283 283 279 273 266 248 239 240 246 251 250 246 244
243 251 255 263 258 233 233 251 251 259 270 265 271 279 296 296 293 287 284 273 270 272 282 283 292 299 289 292 282 283 283 278 280 288 286 270 241 234 234 240 248 255 249 234
228 235 264 272 269 257 248 262 265 263 266 267 271 283 293 294 289 287 278 251 255 271 280 289 298 300 300 297 295 287 285 280 283 290 288 262 245 235 232 238 242 251 250 243
225 242 254 281 254 258 263 273 259 259 267 277 281 291 294 295 280 275 250 238 255 275 290 301 305 308 303 306 299 286 274 276 278 287 280 278 249 239 243 244 244 243 220 250
232 240 261 263 256 268 243 268 259 259 274 284 295 297 304 307 300 278 249 234 246 269 288 303 306 304 301 301 307 287 266 272 256 277 272 261 264 247 248 238 219 221 211 226
230 242 257 255 260 246 254 261 270 269 286 284 288 297 300 309 323 276 234 217 246 271 288 298 305 309 311 311 302 280 271 279 238 258 256 256 266 259 258 249 242 226 218 225
216 235 250 261 272 274 278 277 274 273 272 290 290 290 292 299 306 276 212 235 256 277 290 298 305 309 315 307 319 280 272 278 243 246 252 254 260 261 259 252 237 238 240 244
247 259 262 268 274 276 276 276 282 281 280 283 283 287 289 294 307 286 218 246 268 278 284 302 309 314 310 313 344 296 250 273 243 236 240 252 257 258 258 255 249 240 245 246
260 267 274 279 275 270 279 286 285 281 280 279 281 283 289 295 300 290 299 274 241 273 283 300 303 312 305 312 332 341 307 231 259 246 238 251 255 255 252 249 244 243 241 240
260 269 261 271 276 274 275 278 280 281 277 276 279 284 288 290 286 280 294 274 262 271 279 294 300 303 308 302 306 318 319 324 303 312 285 266 262 259 257 252 248 243 241 244
264 263 262 267 277 279 274 278 279 279 274 278 281 283 287 279 271 264 274 275 263 268 270 280 295 293 295 295 298 306 299 292 279 269 282 275 268 263 260 259 251 245 245 245
273 279 277 281 280 279 276 278 271 273 275 276 283 284 283 270 261 256 253 248 257 268 271 274 286 289 290 292 296 301 302 289 279 272 262 266 268 259 256 254 251 247 248 251
278 273 275 289 293 281 278 275 273 269 273 279 275 275 280 273 254 252 252 252 261 273 270 268 273 283 281 284 293 295 298 292 282 271 266 258 257 244 250 251 245 248 251 253
277 267 269 304 311 303 290 284 283 284 283 280 272 277 278 278 266 258 256 261 267 271 269 264 264 272 283 281 286 291 292 288 279 270 266 261 254 253 239 249 250 248 249 250
222 224 274 295 308 308 301 299 299 300 299 292 284 282 281 277 273 269 264 262 263 264 260 267 258 273 281 275 280 292 284 281 276 273 269 262 255 247 244 248 251 248 246 249
226 256 288 298 302 303 306 309 310 311 307 305 303 300 296 291 282 273 266 263 261 260 259 266 275 276 270 271 279 275 268 270 272 273 271 263 255 248 247 249 250 249 244 243
278 282 298 305 309 312 313 313 308 306 308 307 308 309 310 312 295 278 266 265 258 259 261 266 271 271 270 267 264 263 264 265 266 263 260 257 251 246 246 247 247 245 244 243
285 278 306 307 310 311 313 315 316 309 305 303 306 310 314 316 312 281 263 264 248 249 247 259 263 266 262 261 266 261 257 259 256 251 244 238 233 227 222 219 217 219 220 222
307 299 299 300 302 304 304 304 307 309 310 308 303 300 301 302 308 300 270 257 243 238 247 252 252 248 255 257 254 252 253 253 253 251 247 244 239 237 241 239 236 234 232 229
291 289 288 288 288 290 294 295 297 298 298 298 296 292 290 289 284 273 267 263 257 248 242 240 247 257 256 250 244 240 240 240 240 240 242 245 249 251 250 250 252 253 253 253
292 290 289 287 285 285 287 291 294 294 295 290 286 281 278 275 272 265 260 256 255 253 249 249 250 247 243 240 240 238 236 239 242 242 243 247 252 255 257 259 260 261 262 263
296 294 291 289 287 286 285 285 287 288 289 288 282 273 268 267 264 261 258 257 256 254 249 246 245 243 242 239 234 235 237 237 241 243 246 250 254 259 263 268 271 273 272 272
296 294 292 291 289 286 283 281 281 282 283 283 278 267 260 259 257 256 254 254 254 251 248 245 242 240 238 235 230 236 237 236 237 238 243 251 261 269 275 279 280 282 282 282
297 295 294 292 290 287 283 281 280 280 280 279 275 267 260 257 255 254 254 255 255 253 250 245 241 240 238 230 231 236 238 240 242 245 253 263 270 278 282 284 286 286 287 286
293 293 291 290 288 283 282 282 280 279 276 273 269 263 259 256 255 255 257 258 258 255 251 246 242 240 234 229 233 239 242 241 246 259 267 271 275 276 278 281 282 283 284 284
Height
3043 3042 3042 3044 3044 3045 3043 3042 3042 3035 3032 3028 3031 3029 3024 3019 3016 3011 3005 3002 3000 2998 2996 2993 2990 2990 2987 2985 2984 2984 2983 2982 2983 2984 2982 2983 2985 2986 2989 2990 2991 2990 2990 2992
3033 3034 3034 3030 3031 3032 3031 3030 3032 3031 3023 3026 3021 3018 3016 3013 3009 3003 2999 2995 2993 2992 2990 2988 2986 2984 2982 2980 2978 2976 2975 2975 2975 2974 2974 2975 2976 2979 2979 2983 2984 2985 2986 2988
3026 3029 3028 3020 3015 3016 3016 3017 3018 3019 3019 3018 3013 3010 3008 3002 2999 2994 2990 2987 2986 2985 2983 2982 2980 2977 2976 2974 2972 2970 2968 2966 2965 2964 2963 2963 2964 2968 2971 2975 2978 2979 2979 2982
3022 3024 3019 3010 3007 3008 3010 3011 3007 3008 3009 3007 3003 3001 2999 2995 2991 2988 2985 2982 2980 2978 2978 2977 2974 2971 2969 2968 2965 2963 2960 2959 2958 2957 2955 2953 2953 2958 2962 2967 2970 2970 2973 2976
3018 3014 3008 3006 3007 3007 3004 3002 2998 2999 2997 2996 2994 2991 2993 2987 2982 2979 2977 2976 2975 2973 2971 2970 2968 2965 2962 2960 2957 2954 2953 2952 2951 2950 2948 2948 2949 2952 2955 2958 2960 2964 2967 2968
3010 3009 3001 2998 2998 2999 3000 2993 2990 2989 2989 2987 2984 2982 2980 2975 2973 2971 2969 2969 2970 2968 2967 2964 2961 2957 2955 2954 2951 2947 2946 2946 2945 2944 2944 2943 2944 2946 2949 2951 2954 2956 2955 2960
3003 3001 2995 2994 2989 2992 2994 2991 2983 2982 2981 2979 2977 2974 2970 2966 2963 2962 2960 2961 2962 2962 2961 2959 2955 2952 2950 2948 2945 2943 2940 2940 2939 2939 2939 2939 2940 2942 2944 2943 2945 2949 2953 2956
2997 2994 2991 2984 2985 2987 2982 2978 2978 2976 2974 2972 2969 2966 2963 2961 2958 2954 2948 2950 2955 2956 2956 2953 2950 2946 2943 2941 2937 2935 2934 2934 2934 2934 2936 2936 2937 2938 2939 2941 2942 2946 2949 2951
2988 2983 2977 2979 2979 2976 2973 2972 2971 2968 2966 2963 2960 2959 2957 2954 2951 2948 2944 2946 2949 2950 2950 2946 2944 2941 2938 2935 2930 2928 2928 2929 2929 2930 2932 2932 2934 2934 2935 2937 2939 2941 2943 2945
2979 2973 2974 2973 2970 2968 2965 2963 2961 2959 2955 2954 2952 2951 2949 2946 2943 2941 2937 2941 2943 2944 2943 2941 2938 2936 2935 2931 2927 2924 2924 2925 2923 2926 2928 2928 2929 2930 2932 2933 2934 2936 2938 2940
2965 2965 2964 2963 2960 2958 2955 2953 2950 2949 2948 2946 2944 2942 2941 2940 2938 2937 2932 2934 2936 2938 2937 2936 2934 2932 2931 2929 2926 2924 2923 2921 2922 2922 2923 2924 2925 2927 2928 2929 2930 2931 2933 2935
2956 2959 2957 2954 2952 2949 2946 2944 2942 2940 2940 2938 2936 2934 2933 2932 2933 2932 2929 2930 2930 2932 2932 2931 2929 2928 2927 2926 2925 2922 2921 2920 2918 2918 2920 2921 2921 2923 2923 2924 2925 2927 2928 2930
2949 2949 2946 2943 2942 2941 2938 2936 2935 2933 2931 2928 2928 2927 2926 2925 2925 2925 2925 2924 2925 2926 2926 2925 2925 2923 2922 2922 2921 2920 2918 2917 2917 2916 2917 2917 2917 2918 2919 2920 2920 2922 2923 2925
2941 2940 2937 2936 2933 2932 2929 2927 2926 2925 2924 2922 2921 2920 2918 2917 2918 2918 2920 2920 2921 2921 2921 2920 2919 2919 2917 2916 2916 2915 2914 2913 2913 2912 2912 2913 2913 2913 2914 2915 2916 2917 2918 2920
2933 2931 2928 2926 2923 2921 2919 2918 2918 2918 2917 2914 2913 2912 2911 2910 2911 2912 2913 2913 2914 2914 2915 2914 2914 2914 2912 2912 2911 2910 2908 2908 2908 2907 2906 2907 2907 2908 2909 2910 2911 2912 2913 2914
2924 2922 2922 2921 2917 2915 2913 2913 2912 2911 2909 2908 2907 2906 2905 2904 2904 2904 2905 2906 2906 2907 2907 2907 2907 2907 2906 2906 2905 2903 2902 2901 2901 2901 2900 2900 2901 2901 2903 2904 2905 2906 2907 2909
2918 2919 2919 2918 2916 2914 2911 2909 2907 2906 2904 2903 2901 2899 2898 2897 2896 2896 2896 2897 2898 2898 2899 2900 2899 2899 2899 2899 2898 2897 2895 2895 2895 2895 2894 2894 2894 2895 2896 2897 2898 2900 2901 2903
2915 2916 2915 2914 2912 2910 2908 2905 2903 2900 2899 2897 2896 2894 2892 2890 2888 2888 2888 2888 2889 2891 2891 2892 2892 2892 2891 2892 2891 2890 2890 2890 2890 2889 2888 2888 2888 2889 2890 2890 2891 2892 2894 2896
2910 2911 2910 2909 2907 2905 2903 2901 2899 2897 2895 2893 2891 2889 2887 2884 2881 2880 2880 2880 2882 2883 2884 2885 2885 2885 2885 2885 2885 2885 2885 2886 2886 2885 2885 2884 2883 2884 2884 2884 2885 2886 2888 2889
2906 2906 2905 2904 2902 2900 2898 2896 2894 2892 2890 2888 2886 2884 2882 2880 2878 2877 2876 2876 2876 2877 2878 2879 2879 2879 2880 2880 2880 2880 2881 2882 2882 2882 2881 2881 2881 2881 2881 2881 2882 2883 2884 2885
2903 2902 2900 2899 2897 2895 2893 2891 2889 2887 2885 2883 2881 2880 2879 2877 2876 2874 2873 2872 2873 2873 2874 2874 2875 2875 2876 2876 2876 2877 2878 2878 2878 2878 2878 2879 2879 2879 2879 2880 2881 2881 2882 2883
2898 2897 2895 2893 2891 2889 2887 2885 2883 2882 2880 2878 2876 2875 2874 2874 2872 2872 2871 2871 2870 2870 2870 2871 2871 2872 2872 2873 2873 2874 2874 2875 2875 2876 2876 2876 2877 2877 2877 2878 2878 2879 2879 2880
2892 2890 2889 2887 2885 2883 2881 2879 2877 2875 2873 2872 2871 2870 2869 2869 2869 2868 2867 2867 2867 2867 2867 2867 2868 2868 2868 2869 2870 2870 2871 2871 2872 2872 2873 2873 2873 2874 2874 2875 2875 2875 2876 2876
2884 2882 2880 2878 2876 2874 2873 2871 2870 2868 2866 2865 2864 2863 2863 2863 2863 2863 2862 2862 2862 2863 2863 2863 2864 2864 2865 2865 2866 2866 2867 2868 2868 2869 2869 2869 2870 2870 2870 2871 2871 2871 2871 2871
2874 2872 2870 2868 2866 2864 2862 2861 2860 2859 2858 2857 2856 2856 2856 2855 2856 2856 2856 2856 2856 2857 2857 2858 2858 2859 2860 2860 2861 2862 2863 2864 2864 2865 2865 2865 2865 2866 2866 2866 2865 2865 2864 2864
2863 2861 2858 2856 2854 2853 2851 2850 2849 2849 2848 2848 2848 2848 2848 2848 2848 2848 2849 2849 2850 2850 2851 2851 2852 2853 2854 2855 2856 2857 2858 2859 2860 2860 2860 2860 2860 2860 2860 2859 2859 2858 2857 2856
2852 2849 2847 2845 2844 2842 2841 2840 2840 2840 2840 2840 2840 2840 2840 2841 2841 2841 2842 2842 2842 2843 2844 2845 2846 2847 2847 2849 2850 2852 2853 2853 2853 2854 2854 2854 2854 2853 2853 2852 2851 2850 2849 2847